Find Starlink 6357

NORAD ID: 56783 Int'l Des: 2023-078 Owner: SPXS Country: US Constellation: starlink operational
LEOCIRCULAR

实时位置

正在加载3D地球...

关于 Starlink 6357

正在加载描述...

即将过境

Passes for default location (London). Set your location on the main map for personalized predictions.

高度历史

Loading altitude history...

两行轨道根数

1 56783U 23078S 26124.51519801 .00003376 00000-0 29043-3 0 9994
2 56783 69.9996 183.7784 0003491 272.7271 87.3488 14.98350145161536
Epoch: May 4, 2026 • Age: 17 hours

当前状态

高度 574.3 km
速度 7.57 km/s
星下点 13.05°N, 57.22°E
发射日期 May 31, 2023
运行时间 2.9 years
类型 internet

技术详情

分类 Payload
质量 305.00 kg
干质量 290.00 kg
总质量 305.00 kg
长度 0.20 m
直径 2.80 m
跨度 9.00 m
形状 Box + pan
制造商 SPXS
平台类型 Starlink
阶段状态 In Orbit
所有者/国家 SPXS/US

Most Searched